Location: Newark
(11.2914°S, 14.4718°E)
Time: 15:38:37
(UTC+00:00)

Tiros 1 despin weight - Pass Details

Date: 27 September 2019
Orbit: 594 x 643 km, 48.2° (Epoch: 14 October)

Event Time Altitude Azimuth Distance (km) Brightness Sun altitude
Rises 19:32:58 0° 274° (W) 2,826 ? -38.6°
Enters shadow 19:36:53 - 238° (WSW) 1,994 ? -39.5°
Reaches altitude 10° 19:37:43 10° 228° (SW) 1,940 - -39.7°
Maximum altitude 19:38:07 10° 223° (SW) 1,935 - -39.8°
Drops below altitude 10° 19:38:31 10° 217° (SW) 1,943 - -39.9°
Sets 19:43:21 0° 171° (S) 2,867 - -41.1°
